Temperature
12 12 12 12 12 11 11 11 11 11 11 11 11 11 11 11 11 11 11 11 10 10 10 10 10 10 10 10 10 10 10 10 10 10 10 10 10 10 10 10 10 10 10
11 11 11 11 11 11 11 11 11 11 11 11 11 11 11 10 10 10 10 10 10 10 10 10 10 10 10 10 10 10 10 10 10 10 10 10 10 10 10 10 10 10 10
11 11 11 11 11 11 10 10 10 10 10 10 10 10 10 10 10 10 10 10 10 9 9 9 9 9 9 9 9 9 9 9 9 9 9 9 9 9 9 9 9 9 9
10 10 10 10 10 10 10 10 10 10 10 10 10 10 10 10 10 10 9 9 9 9 9 9 9 9 9 9 9 9 9 9 9 9 9 9 9 9 9 9 9 9 9
10 10 10 10 10 10 10 9 9 9 9 9 9 9 9 9 9 9 9 9 9 9 8 8 8 8 8 8 8 8 8 8 8 8 8 8 8 8 8 8 9 9 9
9 9 9 9 9 9 9 9 9 9 9 9 9 9 9 9 9 9 9 8 8 8 8 8 8 8 8 8 7 7 8 8 8 8 8 8 8 8 8 8 8 8 8
9 9 9 9 8 8 8 8 8 8 8 8 9 9 9 8 8 8 8 8 8 8 7 7 7 7 7 7 7 7 7 7 7 7 8 8 8 8 8 7 8 8 8
8 8 8 8 8 8 8 8 8 8 8 8 8 8 8 8 8 8 8 7 7 7 7 7 7 7 7 7 7 7 7 7 7 7 7 7 7 7 7 7 7 7 7
8 8 7 7 7 7 7 7 7 7 7 7 7 7 7 7 7 7 7 7 7 7 6 6 6 6 6 6 6 6 6 6 6 7 7 7 7 7 7 7 7 7 7
7 7 7 7 7 7 7 7 7 7 7 7 7 7 7 6 6 6 6 6 6 6 6 6 6 6 6 6 6 6 6 6 6 6 6 7 6 6 6 6 6 6 6
7 7 7 7 6 6 6 6 6 6 6 6 6 6 6 6 6 6 6 6 6 5 5 5 5 5 5 5 5 5 5 5 5 6 6 6 6 6 6 6 6 6 6
7 6 6 6 6 6 6 6 6 6 6 6 6 6 5 5 5 5 5 5 5 5 5 5 5 5 5 5 5 5 5 5 5 5 5 5 5 6 6 6 6 5 5
6 6 6 6 6 6 5 5 5 5 5 5 5 5 5 5 5 5 5 5 4 4 4 4 4 4 4 4 4 4 4 4 4 4 5 5 5 5 5 5 5 5 5
6 6 6 5 5 5 5 5 5 5 5 5 4 4 4 4 4 4 4 4 4 4 4 4 4 4 4 4 4 4 4 4 4 4 4 4 4 4 4 5 5 5 5
5 5 5 5 5 5 5 4 4 4 4 4 4 4 4 4 4 4 4 4 4 3 3 3 3 3 3 3 3 3 3 3 3 3 3 4 4 4 4 4 4 4 4
5 5 5 5 5 5 4 4 4 4 4 4 3 3 3 3 3 3 3 3 3 3 3 3 3 2 2 2 3 3 2 2 3 3 3 3 3 3 3 4 4 4 4
5 5 5 4 4 4 4 4 4 3 3 3 3 3 3 3 3 3 3 3 2 2 2 2 2 2 2 2 2 2 2 2 2 2 2 2 2 3 3 3 3 3 3
4 4 4 4 4 4 4 3 3 3 3 3 3 3 3 2 2 2 2 2 2 2 2 1 1 1 1 1 1 1 1 1 1 1 2 2 2 2 2 2 2 3 3
4 4 4 3 3 3 3 3 3 3 2 2 2 2 2 2 2 2 1 1 1 1 1 1 1 1 1 1 1 1 1 1 1 1 1 1 1 2 2 2 2 2 2
4 3 3 3 3 3 3 3 2 2 2 2 2 1 1 2 1 1 1 0 0 0 0 0 0 0 0 0 0 0 0 0 0 1 1 1 1 1 1 1 1 1 2
3 3 3 3 3 3 2 2 2 2 2 1 1 1 1 1 0 0 0 -0 -0 -0 -0 -0 -0 -0 -0 -0 -0 -0 -0 -0 -0 -0 0 0 0 1 1 1 1 1 1
3 3 3 2 2 2 2 2 2 2 1 1 1 1 0 0 0 -0 -0 -1 -1 -1 -1 -1 -1 -1 -1 -1 -1 -1 -1 -1 -1 -1 -0 -0 0 0 0 0 0 1 1
2 2 2 2 2 2 2 2 2 1 1 1 1 0 0 0 -0 -0 -0 -1 -1 -1 -1 -1 -1 -1 -1 -1 -1 -1 -1 -1 -1 -1 -1 -0 -0 -0 -0 -0 -0 -0 0
2 2 2 2 2 2 1 1 1 1 1 0 0 0 -0 -0 -0 -1 -1 -1 -1 -1 -1 -2 -2 -2 -1 -2 -2 -2 -1 -1 -1 -1 -1 -1 -1 -1 -1 -1 -1 -1 -0
1 1 1 1 1 1 1 1 1 1 0 0 -0 -0 -0 -1 -1 -1 -1 -1 -1 -1 -2 -2 -2 -2 -2 -2 -2 -2 -2 -2 -2 -2 -1 -1 -1 -1 -1 -1 -1 -1 -1
1 1 1 1 1 1 1 0 0 0 -0 -0 -0 -1 -1 -1 -1 -1 -2 -2 -2 -2 -2 -2 -2 -2 -2 -2 -2 -2 -2 -2 -2 -2 -2 -2 -2 -2 -1 -1 -1 -1 -1
Wind_Speed
2 1 2 0 0 0 0 1 2 2 1 2 2 1 2 1 1 1 1 1 1 1 1 2 1 1 1 1 1 1 1 1 1 1 1 1 0 1 1 1 1 1 1
1 2 1 1 1 1 1 2 2 2 2 2 2 1 2 2 2 2 1 1 2 1 1 1 1 1 1 1 1 1 0 0 2 1 1 1 0 1 0 0 1 0 1
2 2 2 2 1 1 2 2 2 2 2 2 2 2 3 3 2 2 2 2 2 2 2 2 1 1 1 1 1 0 0 0 0 2 1 1 1 0 0 0 1 1 1
1 1 1 2 2 2 2 2 2 2 2 2 2 2 2 2 2 2 2 2 2 2 2 2 1 2 1 1 0 0 0 1 1 1 1 0 0 1 1 0 0 1 1
0 0 1 2 2 2 2 2 2 2 2 2 2 1 1 2 2 3 2 3 2 1 1 1 2 1 1 1 1 1 1 1 1 0 1 1 0 0 1 1 1 1 1
0 1 1 1 2 2 3 2 2 2 1 1 2 2 1 1 2 3 2 3 2 2 1 1 1 1 1 0 0 1 1 1 1 1 2 2 3 2 2 1 1 0 2
0 1 2 1 2 2 2 2 2 1 1 0 1 1 1 1 2 3 3 3 2 2 2 1 0 1 1 0 1 2 1 1 1 2 3 4 4 4 3 2 2 3 3
0 1 1 1 1 2 2 2 2 1 0 1 0 1 1 1 0 2 3 2 2 1 1 2 1 1 1 1 1 1 2 2 2 1 3 5 5 5 5 5 4 2 1
0 1 2 1 1 1 2 2 2 0 0 0 1 0 1 1 1 1 3 2 1 1 1 1 2 2 1 1 1 0 2 3 3 3 3 3 3 3 4 3 2 1 1
2 2 1 0 0 1 2 2 2 0 1 0 1 0 1 1 1 1 3 2 2 1 0 0 0 0 1 1 2 2 1 3 3 3 3 3 2 1 3 4 4 3 1
1 1 1 1 0 0 1 1 1 1 1 1 1 1 1 1 1 1 3 2 2 1 0 1 1 1 1 0 0 1 2 2 1 1 2 2 1 0 1 2 3 4 3
0 0 1 1 1 1 1 1 1 1 1 1 1 1 1 1 2 1 2 2 2 2 1 1 1 1 1 1 1 1 2 1 1 1 1 1 1 1 2 2 2 2 3
0 0 0 1 1 1 1 1 0 1 1 1 1 0 1 1 1 2 2 2 2 1 1 0 1 1 1 1 2 2 2 1 0 1 1 2 2 2 1 1 1 1 2
1 1 0 0 1 1 1 0 1 1 1 2 2 1 0 1 1 1 1 0 0 0 0 0 1 2 2 2 2 2 1 1 1 1 2 2 2 1 1 1 1 0 0
0 0 0 0 0 0 1 0 1 1 1 2 2 2 1 1 2 2 1 0 0 0 1 1 1 1 1 2 2 2 2 1 1 2 2 2 2 1 2 1 1 1 1
1 1 0 0 0 0 0 1 2 2 2 2 2 2 1 1 2 3 3 3 3 4 3 1 0 0 1 1 1 2 2 2 2 2 2 2 2 2 2 1 1 2 2
1 1 0 0 0 0 1 1 1 3 4 4 3 3 3 3 3 3 3 4 4 5 3 1 0 0 1 1 1 1 2 2 2 2 2 2 2 2 2 1 1 1 1
1 1 0 0 1 1 1 1 1 1 1 2 2 3 3 4 4 4 4 4 3 3 2 1 1 1 1 1 1 1 2 2 2 2 2 2 2 2 2 1 2 1 1
1 1 0 0 0 1 1 1 1 1 1 0 1 2 2 3 4 4 4 3 2 1 1 1 1 1 1 1 1 1 2 2 2 2 2 3 2 2 2 2 2 3 2
1 1 1 1 0 0 1 2 1 1 1 1 0 0 1 2 2 2 1 1 1 1 1 1 1 1 2 2 2 2 2 2 2 2 2 3 3 2 2 2 2 2 2
0 0 1 1 0 1 1 2 2 2 1 1 1 0 1 1 1 0 0 0 0 1 1 1 1 2 2 2 2 2 2 2 2 2 3 3 3 3 2 2 2 2 2
1 1 0 0 1 1 1 1 2 2 1 1 0 0 1 1 1 0 0 1 1 1 1 1 1 1 2 2 2 2 2 3 3 3 3 3 3 3 2 2 2 2 2
1 1 1 0 1 1 1 1 1 1 1 1 1 1 1 0 0 0 0 0 1 1 2 2 2 2 3 4 4 3 3 3 3 3 3 3 3 3 2 3 3 2 2
1 1 1 1 1 1 1 1 1 1 1 1 1 1 0 0 0 0 0 1 1 1 2 2 3 3 4 4 5 5 5 5 5 4 3 3 3 3 2 2 2 3 2
1 1 1 1 1 1 1 1 1 1 0 0 0 0 0 0 0 0 1 1 1 2 2 3 3 4 5 6 6 6 7 6 5 4 3 2 2 2 2 3 2 3 2
1 1 1 1 1 1 1 1 1 1 0 1 1 0 0 0 0 1 1 1 1 2 3 3 4 5 6 6 6 7 7 6 6 5 3 1 1 2 2 2 3 3 3
Wind_Direction
30 29 44 17 323 327 192 241 243 246 237 230 205 191 186 181 156 124 124 113 101 75 64 88 56 49 42 20 37 45 35 138 191 273 279 306 154 123 53 89 113 124 143
43 35 36 15 27 5 279 262 259 253 241 238 207 185 196 195 183 169 179 150 154 147 138 108 78 69 44 25 52 39 1 265 166 203 262 281 272 204 157 127 99 174 194
45 42 21 13 4 316 291 273 253 246 244 233 201 199 206 205 194 186 178 175 171 175 171 161 163 108 53 27 54 20 312 19 109 165 223 251 291 209 71 345 10 346 300
51 40 359 324 310 283 286 283 266 253 239 223 213 203 202 195 186 172 165 159 157 160 169 169 173 171 194 196 213 257 246 74 54 126 184 221 255 243 137 122 320 309 283
71 6 287 295 306 304 298 298 287 267 258 226 203 193 179 178 171 154 158 149 144 151 170 190 196 206 219 210 224 200 143 129 103 113 208 192 238 199 209 216 219 271 278
167 254 282 312 317 317 303 289 285 280 278 229 192 182 174 213 179 154 143 144 148 159 180 217 232 223 238 263 276 208 170 174 184 187 214 210 217 221 214 201 189 146 279
344 296 284 292 301 298 310 302 273 274 285 278 202 165 171 227 181 159 138 135 152 177 179 179 250 334 21 105 15 7 338 315 203 194 214 222 209 209 186 197 205 198 228
0 325 302 304 307 313 313 316 292 274 271 215 174 164 176 243 142 134 136 129 143 165 184 181 182 250 265 122 91 1 329 316 295 253 222 230 221 201 188 192 204 213 276
230 298 300 286 308 327 323 314 302 253 20 337 177 166 189 265 306 114 110 132 133 159 210 191 185 209 240 142 133 151 319 312 318 307 268 246 240 204 170 144 133 129 248
246 255 274 288 332 317 311 309 320 201 186 120 63 295 246 246 316 103 107 132 137 141 10 290 253 196 241 153 170 190 249 293 315 335 339 323 304 212 175 174 175 170 172
261 281 311 316 298 326 332 311 327 98 96 91 74 4 340 339 37 97 103 133 154 153 166 307 289 330 335 334 121 216 256 283 298 311 318 328 354 322 210 206 185 174 180
241 359 332 327 334 7 1 338 355 132 128 132 98 352 337 338 36 47 92 101 111 148 198 244 271 19 29 28 339 319 335 12 12 355 345 320 306 287 282 256 241 230 217
175 248 282 326 328 349 35 9 358 134 150 165 184 223 320 342 345 6 49 90 97 111 204 161 21 36 35 2 350 2 15 7 6 345 299 277 264 259 286 289 288 312 327
187 263 275 80 341 339 18 27 147 137 166 171 172 178 277 329 322 327 326 328 86 23 305 190 64 43 40 15 5 352 343 310 305 270 281 285 293 296 278 254 239 207 69
180 281 343 339 191 287 329 281 193 222 189 173 179 173 166 260 327 18 59 45 113 125 105 78 51 28 8 353 353 344 337 337 322 319 304 300 300 294 290 289 223 173 177
180 262 269 282 268 241 67 12 20 44 33 59 85 94 118 51 34 30 38 53 64 81 88 90 70 324 270 293 323 335 333 325 309 310 302 281 283 283 292 307 257 192 204
208 236 238 200 208 222 169 143 39 21 41 52 65 77 73 59 52 48 54 76 76 84 74 71 49 339 320 332 336 334 326 321 325 327 317 299 286 284 290 296 293 222 216
228 236 163 212 216 221 189 175 156 129 45 11 21 57 68 62 59 57 71 80 59 54 54 50 5 328 318 315 311 318 317 326 334 324 313 308 300 291 298 288 282 260 231
209 224 216 225 230 200 160 140 130 135 131 74 26 26 54 66 66 62 83 82 77 39 13 8 352 347 341 304 298 307 307 311 319 313 311 309 295 278 275 275 277 276 259
215 174 132 139 137 124 140 140 143 146 152 138 123 328 57 67 62 54 57 65 72 11 338 330 332 330 332 324 306 296 301 306 312 311 309 306 297 275 264 262 267 266 251
177 180 97 90 135 158 150 155 161 158 168 187 238 243 92 117 121 94 52 29 237 279 303 306 313 318 319 317 314 295 286 290 294 296 298 298 298 294 279 262 260 266 264
167 173 169 179 189 159 149 161 164 165 169 167 254 40 90 93 133 131 255 285 283 293 312 311 301 300 302 304 303 298 285 287 292 296 298 295 291 292 294 290 285 283 280
144 135 99 83 123 119 106 120 137 150 162 172 147 104 90 118 143 130 292 311 328 330 335 333 325 319 313 309 304 297 278 274 274 275 279 288 293 293 293 289 282 280 275
120 129 121 87 73 89 112 124 131 132 146 149 131 128 108 130 138 74 323 331 330 327 332 329 318 313 314 316 313 307 292 283 281 270 258 263 278 288 288 287 286 283 278
104 111 105 95 93 112 113 98 87 81 78 90 105 103 96 93 66 331 315 330 328 323 321 319 315 314 312 311 311 309 315 318 311 304 280 259 271 289 293 290 294 297 289
85 94 89 87 96 111 111 98 76 58 50 56 66 82 127 211 316 316 324 335 330 323 325 324 321 320 318 316 317 323 326 329 334 329 317 270 274 292 300 294 296 296 294
Height
1525 1525 1524 1523 1523 1522 1522 1521 1521 1521 1520 1520 1520 1519 1519 1519 1519 1518 1518 1518 1517 1517 1516 1516 1516 1516 1515 1515 1515 1515 1515 1515 1514 1514 1515 1515 1515 1514 1514 1514 1514 1514 1514
1523 1522 1522 1521 1520 1519 1519 1518 1518 1518 1518 1518 1517 1517 1516 1516 1516 1516 1516 1515 1515 1514 1514 1514 1513 1513 1513 1513 1513 1513 1512 1512 1512 1512 1512 1512 1512 1512 1512 1512 1512 1512 1512
1521 1520 1519 1518 1518 1517 1516 1515 1515 1515 1514 1514 1514 1514 1513 1513 1513 1513 1513 1513 1512 1512 1512 1511 1511 1511 1510 1510 1510 1510 1510 1510 1509 1509 1509 1510 1510 1510 1510 1510 1510 1510 1510
1518 1517 1516 1515 1514 1514 1513 1512 1512 1511 1511 1511 1511 1510 1510 1510 1510 1510 1510 1510 1510 1510 1509 1509 1509 1508 1508 1508 1508 1507 1507 1507 1507 1506 1507 1507 1507 1507 1507 1507 1508 1508 1508
1516 1514 1513 1512 1512 1511 1510 1509 1509 1508 1508 1508 1507 1507 1507 1507 1507 1508 1507 1507 1507 1507 1507 1506 1506 1506 1506 1505 1505 1505 1504 1504 1504 1504 1504 1504 1504 1504 1504 1505 1505 1505 1506
1513 1511 1510 1509 1509 1508 1507 1506 1505 1505 1505 1504 1504 1504 1504 1504 1504 1504 1505 1504 1504 1504 1503 1503 1503 1503 1503 1502 1502 1502 1502 1502 1501 1501 1501 1501 1501 1502 1502 1502 1502 1502 1502
1510 1508 1507 1506 1505 1504 1504 1503 1502 1502 1501 1501 1500 1500 1500 1500 1500 1501 1501 1501 1501 1500 1500 1500 1499 1499 1499 1499 1499 1499 1499 1499 1499 1499 1498 1498 1498 1498 1499 1499 1499 1499 1499
1507 1505 1504 1503 1502 1501 1500 1499 1499 1498 1498 1497 1497 1497 1497 1497 1497 1497 1497 1497 1497 1497 1497 1497 1496 1496 1496 1496 1496 1496 1495 1495 1495 1495 1495 1495 1495 1495 1496 1496 1496 1497 1497
1504 1502 1501 1499 1499 1498 1497 1496 1495 1495 1494 1494 1494 1494 1494 1493 1494 1494 1494 1494 1494 1494 1494 1494 1494 1493 1493 1493 1493 1492 1492 1492 1492 1492 1492 1492 1492 1492 1493 1493 1493 1494 1493
1501 1499 1498 1497 1496 1495 1494 1493 1492 1492 1491 1491 1490 1491 1490 1490 1490 1491 1491 1490 1490 1490 1490 1490 1490 1490 1490 1490 1490 1489 1488 1488 1488 1488 1488 1488 1488 1489 1489 1490 1490 1490 1490
1498 1497 1496 1495 1494 1493 1492 1491 1490 1489 1488 1488 1488 1488 1488 1488 1487 1488 1488 1488 1487 1487 1487 1487 1487 1487 1487 1487 1487 1486 1486 1485 1485 1485 1484 1485 1485 1485 1486 1487 1487 1488 1488
1496 1495 1494 1493 1492 1491 1489 1488 1487 1486 1485 1485 1485 1485 1485 1485 1485 1485 1485 1485 1485 1484 1484 1484 1484 1484 1484 1483 1483 1483 1483 1482 1482 1481 1481 1481 1482 1482 1483 1484 1484 1485 1486
1494 1492 1491 1491 1490 1488 1487 1485 1485 1484 1483 1483 1482 1482 1482 1483 1483 1483 1482 1482 1482 1482 1481 1482 1481 1481 1481 1481 1480 1480 1480 1479 1479 1479 1478 1479 1479 1479 1480 1481 1481 1482 1483
1491 1490 1489 1488 1487 1486 1485 1484 1483 1482 1481 1480 1480 1480 1480 1481 1480 1480 1480 1479 1479 1479 1479 1479 1479 1479 1479 1479 1478 1478 1477 1477 1477 1476 1476 1476 1477 1477 1477 1477 1478 1479 1479
1489 1488 1486 1486 1485 1484 1483 1482 1481 1480 1479 1478 1478 1478 1479 1479 1479 1479 1478 1477 1477 1476 1476 1476 1476 1476 1476 1476 1475 1475 1475 1475 1475 1474 1474 1474 1473 1474 1474 1474 1475 1475 1476
1486 1486 1484 1484 1483 1482 1481 1480 1480 1479 1478 1478 1478 1478 1478 1478 1478 1477 1477 1476 1475 1475 1474 1473 1473 1474 1473 1473 1473 1473 1473 1473 1472 1472 1471 1471 1471 1471 1471 1471 1472 1472 1472
1485 1483 1482 1481 1480 1480 1479 1478 1477 1477 1477 1476 1476 1477 1476 1476 1476 1475 1475 1474 1474 1473 1472 1472 1472 1472 1472 1472 1472 1472 1471 1471 1471 1470 1469 1469 1469 1468 1468 1468 1469 1469 1469
1483 1482 1481 1479 1479 1478 1477 1476 1476 1475 1474 1474 1475 1475 1474 1474 1473 1473 1473 1473 1472 1471 1470 1470 1470 1470 1471 1470 1470 1470 1470 1469 1468 1467 1467 1466 1466 1466 1466 1466 1466 1466 1466
1481 1480 1479 1478 1477 1476 1475 1475 1474 1474 1473 1473 1473 1473 1473 1472 1472 1472 1471 1470 1470 1470 1470 1469 1469 1469 1469 1469 1468 1468 1467 1466 1466 1465 1464 1464 1464 1464 1463 1463 1463 1463 1463
1479 1478 1477 1476 1475 1474 1474 1473 1473 1472 1472 1472 1471 1471 1471 1470 1470 1469 1469 1469 1469 1469 1468 1468 1467 1467 1467 1466 1466 1465 1465 1464 1463 1462 1462 1461 1461 1461 1460 1460 1460 1460 1460
1476 1476 1475 1474 1473 1473 1472 1472 1471 1471 1471 1470 1470 1470 1470 1469 1468 1468 1468 1468 1468 1467 1467 1466 1466 1465 1464 1464 1463 1463 1462 1461 1460 1459 1459 1458 1458 1458 1458 1457 1457 1457 1457
1474 1473 1473 1472 1471 1471 1471 1470 1470 1470 1469 1469 1469 1469 1468 1467 1467 1467 1467 1467 1466 1466 1465 1465 1464 1463 1462 1462 1461 1460 1459 1458 1457 1457 1456 1456 1456 1455 1455 1454 1454 1454 1453
1473 1472 1471 1470 1470 1469 1469 1469 1468 1468 1468 1467 1467 1467 1466 1466 1465 1465 1465 1465 1464 1464 1463 1462 1461 1461 1460 1459 1458 1457 1456 1455 1454 1454 1453 1453 1452 1452 1451 1451 1450 1450 1450
1471 1470 1469 1469 1468 1468 1468 1467 1467 1467 1466 1466 1465 1465 1465 1464 1464 1464 1463 1463 1462 1462 1461 1460 1459 1458 1457 1456 1455 1454 1453 1452 1451 1451 1450 1450 1449 1449 1448 1448 1447 1447 1447
1469 1469 1468 1468 1467 1467 1467 1466 1466 1465 1465 1464 1464 1464 1463 1463 1462 1462 1461 1461 1460 1460 1459 1458 1457 1456 1455 1453 1452 1451 1450 1449 1448 1448 1447 1447 1446 1446 1445 1445 1444 1444 1443
1468 1467 1467 1467 1466 1466 1466 1465 1465 1464 1464 1463 1463 1462 1462 1461 1461 1460 1460 1459 1458 1457 1456 1456 1455 1453 1452 1450 1449 1448 1447 1446 1445 1445 1444 1444 1443 1443 1442 1442 1441 1440 1440